STARLINK-32930, 63203

Orbit data source: Space-Track

STARLINK-32930, 63203 is a payload satellite owned by SpaceX/Seattle (US) in LEO that was launched on Thu, 13 Mar 2025 UTC via an FALCON 9 launch vehicle from the Air Force Eastern Test Range (AFETR). Payload-class satellites include a variety of spacecraft equipped with specific instruments for various scientific and technological missions. These include communications satellites like Starlink; space stations such as the ISS; scientific satellites like the Hubble; Earth observation satellites from companies like Planet Labs, Umbra, and HawkEye 360; GPS; miniature CubeSats for education and research; and military/defense satellites.

Loading next visibility...
Identifier
63203, 2025-048W
Orbit
LEO
Last TLE update
8 hours ago
Origin
Manufacturer
SpaceX/Seattle
Mission
Operational Commercial Communications
Bus & Motor
STARLINK V2M, Unknown motor
Mass
730 kg wet, ~700 kg dry
Launch date (UTC)
2025-03-13 (5 months ago)
Launch vehicle
FALCON 9
Launch site
Air Force Eastern Test Range (AFETR)
Object type
Payload
Rocket body
Debris
Shape & HBR
Box + 2 Pan, 14.5 m
Radar Cross Section
33.884 m², Large (>1 m²)

Expand to show TLE details & history

TLE from 8 hours ago
0 STARLINK-32930
1 63203U 25048W   25211.40563150  .00027262  00000-0  99570-3 0  9990
2 63203  42.9980 260.9224 0000738 264.1715  95.9052 15.27607418 22686
Epoch: 2025-07-30T09:44Z
TLE epoch observation values (Epoch: 2025-07-30T09:44:06.561Z)
Latitude
-0.00006°
Longitude
166.60968°
Altitude
482.794 km
Speed
7.626 km/s
True Right ascension
17h 23m 41s
True Declination
0° 00' 00"
Sunlit
Object was in full shadow at epoch
Visualization orbit readout
Latitude
42.96581°
Longitude
-98.72687°
Altitude
486.52 km
Speed
7.628 km/s
Apparent Right ascension
21h 39m 51s
Apparent Declination
3° 56' 18"
Sunlit
Object is in daylight
Visualization observer readout
Local Sidereal Time
07:33:41
Azimuth
318.902° NNW
Elevation
-37.45°
Doppler factor
1
Orbital elements
Apogee altitude
485.419 km
Perigee altitude
484.406 km
Semi-major axis
6,863.05 km
Eccentricity
0.00007
Inclination
42.998°
RAAN
260.9224°
Arg. of periapsis
264.1715°
True anomaly
95.91361°
Mean anomaly
95.9052°
Eccentric anomaly
95.90941°
Mean motion
3.8174 °/min
Orbital period
94.31 mins
BSTAR
0.0009957
Loading maneuver chart data...
Loading SW <> Apogee altitude chart data...
Loading historical data...
Loading historical data...
Loading historical data...
Loading historical data...
Loading historical data...
Loading historical data...
Loading historical data...
|